| time (UTC) | temp F | wind direction | speed MPH | gust MPH | rain 1hr in | rain 24hr in | rain mn in | humidity % | barometer mb |
| 20260906213325 | 70 | 12 | 0.0 | 0.0 | 0.00 | 0.00 | 2.02 | 94 | 1001.9 |
| 20260906211831 | 70 | 12 | 0.0 | 0.0 | 0.00 | 0.00 | 2.02 | 94 | 1002.0 |
| 20260906210335 | 70 | 11 | 0.0 | 0.0 | 0.00 | 0.00 | 2.01 | 94 | 1002.1 |
| 20260906204820 | 70 | 11 | 0.0 | 0.0 | 0.00 | 0.00 | 2.00 | 94 | 1002.2 |
| 20260906203323 | 70 | 12 | 0.0 | 0.0 | 0.00 | 0.00 | 1.98 | 94 | 1002.3 |
| 20260906201815 | 70 | 11 | 0.0 | 0.0 | 0.00 | 0.00 | 1.96 | 94 | 1002.2 |
| 20260906200314 | 70 | 11 | 1.0 | 0.0 | 0.00 | 0.00 | 1.95 | 94 | 1002.1 |
| 20260906194822 | 70 | 11 | 1.0 | 0.0 | 0.00 | 0.00 | 1.90 | 94 | 1002.2 |
| 20260906193328 | 70 | 12 | 0.0 | 0.0 | 0.00 | 0.00 | 1.89 | 94 | 1002.3 |
| 20260906191835 | 70 | 12 | 1.0 | 0.0 | 0.00 | 0.00 | 1.89 | 94 | 1002.3 |
| 20260906190313 | 70 | 12 | 2.0 | 0.0 | 0.00 | 0.00 | 1.89 | 94 | 1002.2 |
| 20260906184822 | 70 | 12 | 2.0 | 0.0 | 0.00 | 0.00 | 1.89 | 94 | 1002.3 |
| 20260906183327 | 69 | 13 | 3.0 | 0.0 | 0.00 | 0.00 | 1.88 | 94 | 1002.5 |
| 20260906181813 | 69 | 13 | 2.0 | 0.0 | 0.00 | 0.00 | 1.87 | 94 | 1002.8 |
| 20260906180340 | 69 | 13 | 2.0 | 0.0 | 0.00 | 0.00 | 1.85 | 94 | 1003.1 |
| 20260906174846 | 69 | 14 | 1.0 | 0.0 | 0.00 | 0.00 | 1.80 | 94 | 1003.7 |
| 20260906173330 | 69 | 13 | 1.0 | 0.0 | 0.00 | 0.00 | 1.71 | 94 | 1004.0 |
| 20260906171816 | 70 | 13 | 1.0 | 0.0 | 0.00 | 0.00 | 1.58 | 94 | 1004.3 |
| 20260906170321 | 69 | 13 | 1.0 | 0.0 | 0.00 | 0.00 | 1.52 | 94 | 1004.4 |
| 20260906164829 | 69 | 13 | 0.0 | 0.0 | 0.00 | 0.00 | 1.42 | 94 | 1004.9 |
| 20260906163313 | 69 | 20 | 2.0 | 0.0 | 0.00 | 0.00 | 1.33 | 94 | 1005.3 |
| 20260906161825 | 69 | 20 | 1.0 | 0.0 | 0.00 | 0.00 | 1.17 | 94 | 1005.7 |
| 20260906160329 | 69 | 20 | 1.0 | 0.0 | 0.00 | 0.00 | 1.05 | 94 | 1006.2 |
| 20260906154838 | 69 | 20 | 0.0 | 0.0 | 0.00 | 0.00 | 0.87 | 94 | 1006.8 |
| 20260906153318 | 69 | 20 | 0.0 | 0.0 | 0.00 | 0.00 | 0.55 | 94 | 1007.2 |
| 20260906151827 | 69 | 20 | 0.0 | 0.0 | 0.00 | 0.00 | 0.26 | 94 | 1007.7 |
| 20260906150330 | 70 | 20 | 0.0 | 0.0 | 0.00 | 0.00 | 4.14 | 94 | 1007.9 |
| 20260906144818 | 70 | 20 | 2.0 | 0.0 | 0.00 | 0.00 | 3.94 | 94 | 1008.1 |
| 20260906143316 | 70 | 20 | 1.0 | 0.0 | 0.00 | 0.00 | 3.82 | 93 | 1007.9 |
| 20260906141825 | 70 | 20 | 0.0 | 0.0 | 0.00 | 0.00 | 3.66 | 93 | 1008.6 |
| 20260906140329 | 70 | 19 | 1.0 | 0.0 | 0.00 | 0.00 | 3.50 | 94 | 1009.2 |
| 20260906134838 | 70 | 19 | 0.0 | 0.0 | 0.00 | 0.00 | 3.22 | 94 | 1009.8 |
| 20260906133321 | 70 | 20 | 0.0 | 0.0 | 0.00 | 0.00 | 3.08 | 94 | 1009.4 |
| 20260906131825 | 70 | 19 | 0.0 | 0.0 | 0.00 | 0.00 | 2.91 | 94 | 1010.0 |
| 20260906130330 | 70 | 20 | 0.0 | 0.0 | 0.00 | 0.00 | 2.76 | 94 | 1010.3 |
| 20260906124832 | 70 | 19 | 0.0 | 0.0 | 0.00 | 0.00 | 2.59 | 93 | 1010.4 |
| 20260906123337 | 70 | 20 | 0.0 | 0.0 | 0.00 | 0.00 | 2.50 | 94 | 1010.4 |
| 20260906121820 | 70 | 21 | 0.0 | 0.0 | 0.00 | 0.00 | 2.38 | 94 | 1010.8 |
| 20260906120353 | 70 | 20 | 1.0 | 0.0 | 0.00 | 0.00 | 2.24 | 93 | 1010.9 |
| 20260906114857 | 70 | 20 | 2.0 | 0.0 | 0.00 | 0.00 | 2.12 | 93 | 1011.0 |
| 20260906113315 | 70 | 20 | 1.0 | 0.0 | 0.00 | 0.00 | 2.07 | 93 | 1011.2 |
| 20260906111821 | 70 | 20 | 1.0 | 0.0 | 0.00 | 0.00 | 2.02 | 94 | 1011.3 |
| 20260906110348 | 69 | 19 | 1.0 | 0.0 | 0.00 | 0.00 | 2.00 | 93 | 1011.3 |
| 20260906104815 | 69 | 19 | 1.0 | 0.0 | 0.00 | 0.00 | 1.97 | 93 | 1011.3 |
| 20260906103318 | 69 | 21 | 1.0 | 0.0 | 0.00 | 0.00 | 1.94 | 93 | 1011.3 |
| 20260906101827 | 69 | 21 | 1.0 | 0.0 | 0.00 | 0.00 | 1.92 | 93 | 1011.1 |
| 20260906100352 | 69 | 19 | 1.0 | 0.0 | 0.00 | 0.00 | 1.88 | 93 | 1010.9 |
| 20260906094817 | 69 | 21 | 1.0 | 0.0 | 0.00 | 0.00 | 1.81 | 93 | 1011.0 |
| 20260906093320 | 69 | 20 | 1.0 | 0.0 | 0.00 | 0.00 | 1.76 | 93 | 1011.4 |
| 20260906091827 | 68 | 21 | 1.0 | 0.0 | 0.00 | 0.00 | 1.69 | 93 | 1011.4 |
| 20260906090332 | 68 | 21 | 1.0 | 0.0 | 0.00 | 0.00 | 1.60 | 93 | 1011.4 |
| 20260906084840 | 68 | 21 | 1.0 | 0.0 | 0.00 | 0.00 | 1.52 | 93 | 1011.7 |
| 20260906083317 | 68 | 19 | 0.0 | 0.0 | 0.00 | 0.00 | 1.46 | 93 | 1011.7 |
| 20260906081825 | 68 | 19 | 1.0 | 0.0 | 0.00 | 0.00 | 1.42 | 93 | 1011.5 |
| 20260906080334 | 68 | 19 | 0.0 | 0.0 | 0.00 | 0.00 | 1.37 | 93 | 1011.9 |
| 20260906074816 | 68 | 21 | 1.0 | 0.0 | 0.00 | 0.00 | 1.34 | 93 | 1011.9 |
| 20260906073321 | 68 | 21 | 1.0 | 0.0 | 0.00 | 0.00 | 1.31 | 93 | 1011.7 |
| 20260906071823 | 68 | 21 | 1.0 | 0.0 | 0.00 | 0.00 | 1.29 | 93 | 1011.4 |
| 20260906070327 | 68 | 21 | 1.0 | 0.0 | 0.00 | 0.00 | 1.28 | 93 | 1011.6 |
| 20260906064816 | 67 | 20 | 1.0 | 0.0 | 0.00 | 0.00 | 1.27 | 93 | 1011.6 |
| 20260906063322 | 67 | 19 | 1.0 | 0.0 | 0.00 | 0.00 | 1.26 | 93 | 1011.8 |
| 20260906061823 | 67 | 20 | 1.0 | 0.0 | 0.00 | 0.00 | 1.24 | 93 | 1012.1 |
| 20260906060334 | 67 | 21 | 0.0 | 0.0 | 0.00 | 0.00 | 1.21 | 93 | 1012.3 |
| 20260906054813 | 67 | 21 | 0.0 | 0.0 | 0.00 | 0.00 | 1.17 | 93 | 1012.4 |
| 20260906053318 | 67 | 21 | 0.0 | 0.0 | 0.00 | 0.00 | 1.13 | 93 | 1012.2 |
| 20260906051824 | 67 | 21 | 1.0 | 0.0 | 0.00 | 0.00 | 1.07 | 93 | 1012.2 |
| 20260906050328 | 67 | 21 | 0.0 | 0.0 | 0.00 | 0.00 | 1.05 | 93 | 1012.0 |
| 20260906044813 | 67 | 20 | 3.0 | 0.0 | 0.00 | 0.00 | 1.03 | 93 | 1012.2 |
| 20260906043320 | 67 | 22 | 1.0 | 0.0 | 0.00 | 0.00 | 1.00 | 92 | 1012.4 |
| 20260906041828 | 67 | 21 | 2.0 | 0.0 | 0.00 | 0.00 | 0.96 | 93 | 1012.6 |
| 20260906040333 | 67 | 21 | 1.0 | 0.0 | 0.00 | 0.00 | 0.93 | 92 | 1012.7 |
| 20260906034813 | 67 | 22 | 1.0 | 0.0 | 0.00 | 0.00 | 0.89 | 92 | 1013.0 |
| 20260906033338 | 67 | 21 | 2.0 | 0.0 | 0.00 | 0.00 | 0.83 | 92 | 1013.0 |
| 20260906031825 | 67 | 21 | 1.0 | 0.0 | 0.00 | 0.00 | 0.76 | 92 | 1013.2 |
| 20260906030329 | 67 | 21 | 0.0 | 0.0 | 0.00 | 0.00 | 0.69 | 92 | 1013.4 |
| 20260906024816 | 67 | 21 | 1.0 | 0.0 | 0.00 | 0.00 | 0.67 | 92 | 1013.5 |
| 20260906023314 | 67 | 22 | 1.0 | 0.0 | 0.00 | 0.00 | 0.65 | 92 | 1013.6 |
| 20260906021823 | 67 | 21 | 1.0 | 0.0 | 0.00 | 0.00 | 0.63 | 92 | 1013.8 |
| 20260906020313 | 67 | 21 | 1.0 | 0.0 | 0.00 | 0.00 | 0.61 | 92 | 1014.1 |
| 20260906014839 | 67 | 20 | 1.0 | 0.0 | 0.00 | 0.00 | 0.57 | 92 | 1014.6 |
| 20260906013321 | 67 | 22 | 1.0 | 0.0 | 0.00 | 0.00 | 0.52 | 92 | 1014.4 |
| 20260906011828 | 67 | 21 | 2.0 | 0.0 | 0.00 | 0.00 | 0.50 | 92 | 1014.4 |
| 20260906010334 | 67 | 22 | 2.0 | 0.0 | 0.00 | 0.00 | 0.46 | 92 | 1014.2 |
| 20260906004830 | 67 | 22 | 2.0 | 0.0 | 0.00 | 0.00 | 0.44 | 92 | 1014.0 |
| 20260906003315 | 67 | 21 | 2.0 | 0.0 | 0.00 | 0.00 | 0.43 | 92 | 1014.1 |
| 20260906001843 | 67 | 22 | 2.0 | 0.0 | 0.00 | 0.00 | 0.43 | 92 | 1014.4 |
| 20260906000348 | 67 | 22 | 1.0 | 0.0 | 0.00 | 0.00 | 0.39 | 92 | 1014.7 |
| 20260905234854 | 67 | 22 | 1.0 | 0.0 | 0.00 | 0.00 | 0.33 | 92 | 1014.7 |
| 20260905233334 | 67 | 22 | 1.0 | 0.0 | 0.00 | 0.00 | 0.28 | 92 | 1014.8 |
| 20260905231815 | 67 | 21 | 1.0 | 0.0 | 0.00 | 0.00 | 0.23 | 92 | 1014.9 |
| 20260905230320 | 67 | 21 | 1.0 | 0.0 | 0.00 | 0.00 | 0.21 | 91 | 1014.6 |
| 20260905224828 | 67 | 22 | 1.0 | 0.0 | 0.00 | 0.00 | 0.19 | 91 | 1014.6 |
| 20260905223333 | 67 | 22 | 2.0 | 0.0 | 0.00 | 0.00 | 0.17 | 91 | 1014.4 |
| 20260905221814 | 67 | 21 | 1.0 | 0.0 | 0.00 | 0.00 | 0.16 | 91 | 1014.6 |
| 20260905220322 | 67 | 22 | 2.0 | 0.0 | 0.00 | 0.00 | 0.14 | 91 | 1014.3 |
| 20260905214829 | 67 | 22 | 1.0 | 0.0 | 0.00 | 0.00 | 0.11 | 90 | 1014.2 |